Location: Slidell
(30.2789°N, 89.7378°W)
Time: 23:03:44
(UTC-05:00)

Daily predictions for brighter satellites

Satellite Brightness Start Highest point End
(mag) Time Altitude Azimuth Time Altitude Azimuth Time Altitude Azimuth
CENTAUR R/B 3.4 20:09:23 10° NNW 20:17:18 59° ENE 20:25:29 10° SE
Cosmos 1703 Rocket 4.5 20:15:13 10° NNW 20:19:36 55° W 20:23:57 10° S
Meteosat 1 Rocket2 3.7 20:17:22 10° W 20:22:06 73° S 20:29:21 10° E
Cosmos 2278 Rocket 2.8 20:26:54 10° SSE 20:31:54 33° ESE 20:36:54 10° NE
Cosmos 1844 Rocket 2.7 20:26:35 10° SSW 20:32:13 79° ESE 20:37:53 10° NNE
COSMOS 2406 3.6 20:27:02 10° N 20:32:36 49° ENE 20:38:04 10° SE
Cosmos 1825 4.0 20:30:53 10° ESE 20:32:56 14° E 20:34:59 10° NE
Coronas F rocket 1.3 20:31:16 10° S 20:33:53 81° W 20:36:32 10° N
Cosmos 2084 3.1 20:30:43 10° SSW 20:34:36 65° ESE 20:38:23 10° NE
Cosmos 1844 3.8 20:31:39 10° S 20:37:16 62° ESE 20:42:59 10° NNE
FENGYUN 3A 3.6 20:33:51 10° SSE 20:39:13 75° ENE 20:44:36 10° N
Cosmos 2056 Rocket 4.0 20:34:16 10° SSW 20:39:24 65° WNW 20:44:30 10° N
BREEZE-M DEB (TANK) 3.9 20:39:47 10° N 20:41:31 20° NE 20:43:47 12° E
Meteor 2-10 Rocket 3.7 20:35:49 10° N 20:41:34 67° E 20:47:05 10° SSE
Cosmos 1908 Rocket 4.3 20:40:20 10° SSE 20:44:15 32° E 20:48:11 10° NNE
Cosmos 1733 Rocket 3.0 20:40:49 10° S 20:45:13 88° E 20:49:38 10° N
Abrixas 3.7 20:47:11 10° S 20:49:36 22° SE 20:50:21 20° ESE
PSLV R/B 3.7 20:47:05 10° NW 20:50:27 54° NNE 20:52:46 19° E
CZ-4 DEB 2.8 20:56:27 19° SSE 20:58:34 57° ENE 21:01:41 10° N
SL-27 R/B 2.4 20:56:43 10° N 21:00:19 66° ENE 21:02:33 21° SSE
CZ-2D R/B 4.2 20:57:43 10° S 21:01:23 47° W 21:05:05 10° NNW
deb Chang Zheng 4 3.9 20:57:32 10° NNE 21:01:46 44° E 21:06:01 10° S
GPS 2-05 Rocket1 4.2 21:00:26 10° W 21:03:58 39° N 21:07:26 10° ENE
Cosmos 2154 Rocket 4.0 21:00:26 10° S 21:06:32 61° E 21:12:38 10° NNE
Cosmos 2297 4.3 21:03:09 10° SSE 21:08:10 33° ESE 21:13:14 10° NE
Meteor 1-10 Rocket 4.2 21:02:23 10° N 21:08:11 85° E 21:13:48 10° S
EO 1 Delta rocket 4.2 21:04:35 10° NNE 21:09:58 49° E 21:13:37 16° SSE
YAOGAN 11 4.1 21:07:01 16° SSE 21:10:38 79° ENE 21:15:11 10° N
ERBS 3.2 21:08:03 10° NW 21:11:22 44° WSW 21:13:13 22° S
Envisat 3.5 21:09:02 23° SE 21:11:42 41° ENE 21:16:27 10° N
Cosmos 1862 3.3 21:09:17 14° S 21:12:43 62° E 21:16:45 10° NNE
H-2A R/B 2.7 21:12:34 27° ESE 21:14:06 37° ENE 21:18:02 10° N
SEDSat Delta rocket 2.9 21:10:18 10° WSW 21:14:43 60° SSE 21:16:42 28° E
Intelsat 3F5 C 3.9 21:13:33 10° W 21:16:54 88° NNE 21:17:42 46° E
APEX 3.4 21:17:49 31° SSE 21:19:07 46° ESE 21:23:23 10° NNE
CZ-3C R/B 3.4 20:33:54 10° WSW 21:19:10 45° S 21:23:56 25° SE
Cosmos 1420 Rocket 4.0 21:17:41 10° S 21:22:51 62° ESE 21:28:00 10° NNE
COSMOS 2487 3.7 21:20:23 10° N 21:23:26 27° ENE 21:23:26 27° ENE
Cosmos 1606 2.7 21:19:47 10° N 21:23:41 64° E 21:24:55 40° SSE
ALOS 4.1 21:21:16 10° SSW 21:25:17 29° W 21:29:21 10° NW
ERS-1 Rocket 2.9 21:22:47 20° SSE 21:26:16 88° WSW 21:31:20 10° NNW
SJ-11-01 4.4 21:26:48 21° S 21:30:00 75° WSW 21:34:46 10° NNW
Meteor 1-27 Rocket 3.6 21:29:23 10° N 21:34:57 85° E 21:37:56 28° S
Cosmos 407 Rocket 3.7 21:30:29 10° NNW 21:35:46 73° WSW 21:38:44 27° S
Cosmos 1140 Rocket 4.0 21:34:00 10° N 21:38:48 39° ENE 21:39:36 37° E
Okean 3 3.4 21:36:33 10° N 21:40:47 60° E 21:41:10 57° ESE
H-2A R/B 4.1 21:42:14 14° ENE 21:42:14 14° ENE 21:44:38 10° NE
Cosmos 1782 4.3 21:39:42 10° NNW 21:43:23 34° W 21:46:08 16° SSW
USA 234 4.2 21:39:40 10° ENE 21:43:02 26° E 21:43:02 26° E
Okean 2 Rocket 2.9 21:45:11 44° S 21:46:34 88° ESE 21:51:00 10° N
ARGOS 4.0 21:46:31 30° ENE 21:46:51 31° ENE 21:51:29 10° N
CZ-4B R/B 3.5 21:45:44 10° NNE 21:50:13 49° E 21:50:13 49° E
Cosmos 1939 Rocket 3.6 21:52:48 37° SW 21:53:47 46° W 21:57:33 10° NNW
Cosmos 1184 Rocket 4.2 21:52:57 32° WSW 21:53:48 38° W 21:56:56 10° N
ATLAS 5 CENTAUR R/B 3.9 21:49:22 10° NW 21:54:49 32° WSW 21:58:59 16° SSW
YAOGAN 6 3.8 21:56:01 33° NNE 21:56:01 33° NNE 21:58:13 10° N
Terra 4.0 21:56:47 12° NE 21:56:47 12° NE 21:57:54 10° NE
OAO 3 Rocket 3.4 21:51:27 10° W 21:56:24 69° NNW 21:58:14 38° ENE
Cosmos 1408 4.2 21:55:09 19° SW 21:57:10 32° W 22:00:30 10° NNW
Cosmos 1782 Rocket 4.2 21:54:44 24° SSW 21:57:12 53° W 22:01:34 10° N
SPOT 1/Viking Rocket 3.9 21:57:07 44° ENE 21:57:18 44° ENE 22:02:13 10° N
Atlas Centaur 2 2.2 21:55:39 10° W 21:57:58 34° WSW 21:57:58 34° WSW
Cosmos 1242 Rocket 3.6 21:55:31 10° N 21:58:03 40° NNE 21:58:03 40° NNE
Meteor 2-13 Rocket 4.4 21:55:44 24° S 21:59:41 82° W 22:05:52 10° N
Cosmos 2218 Rocket 4.0 22:00:21 48° SSE 22:02:00 65° E 22:08:19 10° NNE
SPOT 5 3.1 22:04:32 54° S 22:05:45 78° WSW 22:11:07 10° NNW
Cosmos 1238 Rocket 3.5 22:03:50 10° NNW 22:07:16 47° W 22:07:26 47° WSW
Cosmos 1825 4.4 22:05:45 13° SW 22:08:17 24° W 22:11:25 10° NNW
SL-08 R/B 4.4 22:11:40 54° SSE 22:13:13 78° E 22:19:41 10° N
MetOp-A 4.1 22:13:07 64° SSW 22:13:55 78° WSW 22:19:17 10° NNW
Meteor 1-25 Rocket 4.5 22:15:14 54° ENE 22:15:14 54° ENE 22:20:25 10° NNE
Cosmos 1959 Rocket 4.3 22:13:55 57° S 22:15:16 85° E 22:21:24 10° N
Cosmos 2278 Rocket 4.3 22:11:14 10° WSW 22:15:54 26° WNW 22:20:37 10° N
Cosmos 1833 Rocket 3.7 22:12:55 10° N 22:17:28 32° NE 22:17:28 32° NE
Cosmos 1975 Rocket 3.6 22:13:52 10° NNW 22:18:01 53° W 22:18:01 53° W
DNEPR-1 R/B 4.1 22:14:59 10° NNW 22:19:11 56° NNE 22:19:11 56° NNE
Cosmos 1850 Rocket 4.0 22:15:08 10° NNW 22:20:15 75° NE 22:20:15 75° NE
Cosmos 1727 Rocket 4.3 22:16:50 10° N 22:22:23 49° ENE 22:22:23 49° ENE
Meteosat 1 Rocket2 4.4 22:17:05 10° W 22:23:16 66° S 22:24:32 58° SSE
USA 229 DEB 4.2 22:26:05 10° NNW 22:32:56 47° ENE 22:33:32 46° ENE
USA 229 4.2 22:26:12 10° NNW 22:33:02 47° ENE 22:33:38 46° ENE
BREEZE-M DEB (TANK) 3.8 22:32:03 10° NW 22:38:18 41° N 22:38:18 41° N
Cosmos 1741 Rocket 4.4 22:36:15 10° NNW 22:40:44 60° WNW 22:40:44 60° WNW
Cosmos 2082 Rocket 2.5 22:35:59 10° NNW 22:40:49 61° NNE 22:40:49 61° NNE
Timation 2 Rocket 4.2 22:43:34 10° NNW 22:49:13 57° W 22:49:13 57° W
H-2A R/B 3.4 23:22:52 38° NW 23:22:52 38° NW 23:26:14 10° NNW
Cosmos 2369 Rocket 4.2 23:26:49 20° NNE 23:26:49 20° NNE 23:28:29 10° NNE
USA 234 3.8 23:22:09 10° NNE 23:28:27 53° NW 23:30:12 42° W
Terra 4.0 23:35:40 23° NW 23:35:40 23° NW 23:37:34 10° NNW
CZ-3 Stage 3 3.9 23:02:52 10° W 23:37:01 79° SW 23:37:01 79° SW
